FW5225 Weather Reports


Display with metric or nautical units.
time (UTC)temp
F
wind
direction
speed
MPH
gust
MPH
rain 1hr
in
rain 24hr
in
rain mn
in
humidity
%
barometer
mb
20260504194516 72 223 3.0 7.0 0.00 0.00 0.00 40 1010.6
20260504194014 72 267 3.0 7.0 0.00 0.00 0.00 39 1010.6
20260504193515 72 306 4.0 7.0 0.00 0.00 0.00 39 1010.6
20260504193015 72 285 2.0 6.0 0.00 0.00 0.00 40 1010.2
20260504192514 72 273 1.0 9.0 0.00 0.00 0.00 40 1010.5
20260504192013 71 242 4.0 9.0 0.00 0.00 0.00 40 1010.8
20260504191513 71 242 2.0 5.0 0.00 0.00 0.00 40 1010.4
20260504191014 71 198 1.0 9.0 0.00 0.00 0.00 40 1009.9
20260504190516 71 296 3.0 9.0 0.00 0.00 0.00 41 1010.2
20260504190014 71 262 2.0 6.0 0.00 0.00 0.00 41 1010.1
20260504185512 71 294 2.0 6.0 0.00 0.00 0.00 40 1010.3
20260504185016 71 207 1.0 8.0 0.00 0.00 0.00 40 1009.9
20260504184512 71 281 1.0 8.0 0.00 0.00 0.00 41 1010.2
20260504184015 71 258 2.0 8.0 0.00 0.00 0.00 41 1010.2
20260504183512 70 319 3.0 8.0 0.00 0.00 0.00 42 1010.4
20260504183011 70 218 3.0 11.0 0.00 0.00 0.00 42 1010.3
20260504182510 70 301 6.0 11.0 0.00 0.00 0.00 43 1010.4
20260504182010 70 287 6.0 11.0 0.00 0.00 0.00 43 1010.7
20260504181516 70 263 6.0 11.0 0.00 0.00 0.00 43 1010.6
20260504181010 70 245 3.0 11.0 0.00 0.00 0.00 45 1010.6
20260504180510 70 266 5.0 9.0 0.00 0.00 0.00 43 1010.7
20260504180010 70 269 3.0 9.0 0.00 0.00 0.00 44 1010.5
20260504175509 69 281 3.0 16.0 0.00 0.00 0.00 44 1010.3
20260504175011 69 265 4.0 16.0 0.00 0.00 0.00 45 1010.5
20260504174507 69 290 4.0 11.0 0.00 0.00 0.00 46 1010.5
20260504174007 69 281 6.0 11.0 0.00 0.00 0.00 46 1010.5
20260504173505 69 278 4.0 10.0 0.00 0.00 0.00 47 1010.4
20260504173005 69 227 4.0 13.0 0.00 0.00 0.00 48 1010.3
20260504172505 69 228 6.0 13.0 0.00 0.00 0.00 49 1010.4
20260504172008 69 250 6.0 12.0 0.00 0.00 0.00 50 1010.4
20260504171507 69 186 5.0 11.0 0.00 0.00 0.00 50 1010.1
20260504171005 69 232 2.0 8.0 0.00 0.00 0.00 51 1009.8
20260504170501 69 294 4.0 9.0 0.00 0.00 0.00 50 1009.7
20260504151048 68 267 5.0 12.0 0.00 0.00 0.00 53 1009.7
20260504150547 68 254 6.0 11.0 0.00 0.00 0.00 52 1009.6
20260504141034 69 290 2.0 7.0 0.00 0.00 0.00 46 1008.9
20260504140534 69 220 1.0 6.0 0.00 0.00 0.00 46 1008.8
20260504130524 69 298 2.0 8.0 0.00 0.00 0.00 44 1008.3
20260504110511 71 273 0.0 3.0 0.00 0.00 0.00 39 1007.7
20260504100505 72 209 0.0 3.0 0.00 0.00 0.00 37 1007.6
20260504081556 74 221 1.0 7.0 0.00 0.00 0.00 34 1007.1
20260504081056 74 253 1.0 7.0 0.00 0.00 0.00 34 1007.1
20260504080555 75 299 1.0 7.0 0.00 0.00 0.00 34 1007.2
20260504050543 78 234 3.0 11.0 0.00 0.00 0.00 28 1006.7
20260504045541 79 289 5.0 13.0 0.00 0.00 0.00 27 1006.7
20260504045041 79 217 4.0 12.0 0.00 0.00 0.00 27 1006.7
20260504044542 79 259 3.0 10.0 0.00 0.00 0.00 27 1006.6
20260504044043 79 229 3.0 11.0 0.00 0.00 0.00 26 1006.6
20260504043542 79 276 5.0 11.0 0.00 0.00 0.00 26 1006.6
20260504043049 79 251 4.0 9.0 0.00 0.00 0.00 26 1006.6
20260504042540 80 273 3.0 11.0 0.00 0.00 0.00 25 1006.6
20260504042042 80 235 3.0 11.0 0.00 0.00 0.00 24 1006.5
20260504041541 80 257 5.0 11.0 0.00 0.00 0.00 24 1006.5
20260504041040 80 171 5.0 13.0 0.00 0.00 0.00 23 1006.5
20260504040540 80 238 6.0 13.0 0.00 0.00 0.00 23 1006.3
20260504040040 80 258 4.0 17.0 0.00 0.00 0.00 22 1006.3
20260504035540 80 279 6.0 15.0 0.00 0.00 0.00 22 1006.2
20260504035044 81 297 6.0 13.0 0.00 0.00 0.00 22 1006.1
20260504034547 81 247 6.0 13.0 0.00 0.00 0.00 21 1006.0
20260504034039 81 181 5.0 11.0 0.00 0.00 0.00 21 1005.9
20260504033539 81 245 4.0 9.0 0.00 0.00 0.00 21 1005.9
20260504033041 81 260 5.0 14.0 0.00 0.00 0.00 21 1005.8
20260504032538 81 281 6.0 14.0 0.00 0.00 0.00 21 1005.6
20260504032043 81 218 5.0 13.0 0.00 0.00 0.00 20 1005.6
20260504031538 82 290 5.0 15.0 0.00 0.00 0.00 20 1005.4
20260504031039 82 269 7.0 16.0 0.00 0.00 0.00 20 1005.4
20260504030538 82 238 5.0 12.0 0.00 0.00 0.00 20 1005.4
20260504030045 82 265 4.0 15.0 0.00 0.00 0.00 19 1005.0
20260504025538 82 246 7.0 15.0 0.00 0.00 0.00 19 1005.0
20260504025038 83 311 7.0 14.0 0.00 0.00 0.00 19 1004.8
20260504024537 83 209 5.0 14.0 0.00 0.00 0.00 18 1004.6
20260504024037 83 244 6.0 13.0 0.00 0.00 0.00 18 1004.6
20260504023537 83 298 4.0 17.0 0.00 0.00 0.00 18 1004.5
20260504023037 84 347 5.0 17.0 0.00 0.00 0.00 18 1004.5
20260504022537 84 209 6.0 14.0 0.00 0.00 0.00 18 1004.4
20260504022036 84 254 5.0 14.0 0.00 0.00 0.00 17 1004.2
20260504021537 85 190 5.0 13.0 0.00 0.00 0.00 17 1004.3
20260504021037 85 271 6.0 15.0 0.00 0.00 0.00 17 1004.3
20260504020536 85 284 5.0 15.0 0.00 0.00 0.00 16 1004.1
20260504020043 85 235 5.0 17.0 0.00 0.00 0.00 17 1004.0
20260504015536 85 268 6.0 17.0 0.00 0.00 0.00 17 1004.1
20260504015036 85 257 4.0 18.0 0.00 0.00 0.00 17 1004.1
20260504014539 86 262 5.0 15.0 0.00 0.00 0.00 17 1003.9
20260504014035 86 243 5.0 14.0 0.00 0.00 0.00 17 1003.7
20260504013536 86 229 4.0 13.0 0.00 0.00 0.00 17 1003.9
20260504013037 87 269 4.0 15.0 0.00 0.00 0.00 17 1003.8
20260504012535 87 286 6.0 16.0 0.00 0.00 0.00 17 1003.8
20260504012037 87 255 7.0 14.0 0.00 0.00 0.00 17 1003.7
20260504011534 87 243 5.0 13.0 0.00 0.00 0.00 17 1003.8
20260504011035 88 307 5.0 12.0 0.00 0.00 0.00 16 1003.8
20260504010534 88 226 5.0 12.0 0.00 0.00 0.00 16 1003.8
20260504010034 89 226 5.0 13.0 0.00 0.00 0.00 16 1003.8
20260504005535 89 277 5.0 13.0 0.00 0.00 0.00 15 1003.8
20260504005035 89 247 6.0 13.0 0.00 0.00 0.00 15 1003.9
20260504004534 90 268 6.0 17.0 0.00 0.00 0.00 15 1003.8
20260504004033 90 223 5.0 17.0 0.00 0.00 0.00 15 1003.9
20260504003532 90 232 5.0 15.0 0.00 0.00 0.00 15 1003.9
20260504003032 90 300 4.0 12.0 0.00 0.00 0.00 14 1003.9
20260504002532 90 265 6.0 15.0 0.00 0.00 0.00 14 1003.9
20260504002032 91 299 7.0 15.0 0.00 0.00 0.00 14 1003.8
20260504001536 91 213 6.0 12.0 0.00 0.00 0.00 14 1003.9
20260504001033 91 224 5.0 14.0 0.00 0.00 0.00 14 1003.9
20260504000533 92 256 5.0 14.0 0.00 0.00 0.00 13 1003.8
20260504000032 92 267 4.0 11.0 0.00 0.00 0.00 14 1003.8
20260503235532 92 223 5.0 12.0 0.00 0.00 0.00 13 1003.8
20260503235032 92 232 4.0 14.0 0.00 0.00 0.00 13 1003.8
20260503234532 92 250 6.0 15.0 0.00 0.00 0.00 13 1003.9
20260503234034 92 279 6.0 15.0 0.00 0.00 0.00 13 1003.8
20260503233532 93 246 5.0 12.0 0.00 0.00 0.00 13 1003.7
20260503233031 93 219 5.0 13.0 0.00 0.00 0.00 13 1003.7
20260503232531 93 202 4.0 13.0 0.00 0.00 0.00 13 1003.7
20260503232032 93 260 5.0 14.0 0.00 0.00 0.00 13 1003.6
20260503231530 93 277 5.0 11.0 0.00 0.00 0.00 13 1003.6
20260503231030 93 286 5.0 11.0 0.00 0.00 0.00 13 1003.7
20260503230530 93 267 5.0 11.0 0.00 0.00 0.00 13 1003.7
20260503230030 93 214 5.0 12.0 0.00 0.00 0.00 13 1003.9
20260503225530 94 295 5.0 9.0 0.00 0.00 0.00 13 1003.8
20260503225029 94 222 4.0 9.0 0.00 0.00 0.00 13 1003.9
20260503224527 94 343 2.0 8.0 0.00 0.00 0.00 13 1004.0
20260503224027 94 232 1.0 11.0 0.00 0.00 0.00 13 1004.0
20260503223526 95 272 4.0 11.0 0.00 0.00 0.00 13 1004.1
20260503223026 95 211 1.0 8.0 0.00 0.00 0.00 13 1004.2
20260503222524 95 293 3.0 8.0 0.00 0.00 0.00 13 1004.2
20260503222025 95 232 2.0 6.0 0.00 0.00 0.00 14 1004.3
20260503221523 94 329 0.0 5.0 0.00 0.00 0.00 13 1004.4
20260503221023 94 262 2.0 6.0 0.00 0.00 0.00 13 1004.6
20260503220521 94 186 1.0 7.0 0.00 0.00 0.00 13 1004.7
20260503220020 94 265 3.0 8.0 0.00 0.00 0.00 13 1004.9
20260503215520 94 277 3.0 8.0 0.00 0.00 0.00 13 1004.9
20260503215018 94 255 4.0 8.0 0.00 0.00 0.00 13 1005.1
20260503214535 94 274 2.0 7.0 0.00 0.00 0.00 13 1005.1
20260503214017 94 167 3.0 7.0 0.00 0.00 0.00 13 1005.2
20260503213516 94 284 2.0 8.0 0.00 0.00 0.00 13 1005.3
20260503213016 94 232 4.0 9.0 0.00 0.00 0.00 13 1005.4
20260503212518 94 266 1.0 9.0 0.00 0.00 0.00 13 1005.4
20260503212017 95 239 3.0 9.0 0.00 0.00 0.00 13 1005.5
20260503211515 95 325 5.0 9.0 0.00 0.00 0.00 13 1005.5
20260503211015 95 144 2.0 7.0 0.00 0.00 0.00 14 1005.5
20260503210514 95 206 2.0 9.0 0.00 0.00 0.00 13 1005.7
20260503210014 95 225 2.0 9.0 0.00 0.00 0.00 13 1005.7
20260503205513 95 244 2.0 9.0 0.00 0.00 0.00 13 1005.8
20260503205012 95 239 4.0 9.0 0.00 0.00 0.00 14 1005.9
20260503204511 94 241 2.0 8.0 0.00 0.00 0.00 13 1005.9
20260503204009 94 267 2.0 8.0 0.00 0.00 0.00 14 1006.0
20260503203508 94 274 3.0 10.0 0.00 0.00 0.00 13 1006.1
20260503203008 94 294 4.0 10.0 0.00 0.00 0.00 15 1006.2
20260503202508 94 144 0.0 6.0 0.00 0.00 0.00 15 1006.2
20260503202007 94 265 2.0 8.0 0.00 0.00 0.00 14 1006.3
20260503201507 94 226 2.0 8.0 0.00 0.00 0.00 14 1006.4
20260503201009 94 242 3.0 8.0 0.00 0.00 0.00 14 1006.4
20260503200505 94 215 2.0 7.0 0.00 0.00 0.00 14 1006.5
20260503200004 94 265 1.0 5.0 0.00 0.00 0.00 14 1006.6
20260503195503 94 253 1.0 8.0 0.00 0.00 0.00 14 1006.7
20260503195002 93 263 3.0 9.0 0.00 0.00 0.00 14 1006.8